FW9813 Weather Reports


time (UTC)temp
C
wind
direction
speed
KPH
gust
KPH
rain 1hr
cm
rain 24hr
cm
rain mn
cm
humidity
%
barometer
mb
20260504044539 12 0 0.0 1.6 0.00 0.00 0.00 49 1000.9
20260504043048 12 0 0.0 0.0 0.00 0.00 0.00 50 1001.1
20260504041543 11 0 0.0 1.6 0.00 0.00 0.00 50 1001.5
20260504040100 11 0 0.0 1.6 0.00 0.00 0.00 51 1001.9
20260504034541 11 0 0.0 0.0 0.00 0.00 0.00 51 1002.2
20260504033038 11 0 0.0 0.0 0.00 0.00 0.00 53 1002.7
20260504031546 11 0 0.0 0.0 0.00 0.00 0.00 51 1002.9
20260504030044 12 0 0.0 0.0 0.00 0.00 0.00 48 1003.1
20260504024542 13 0 0.0 0.0 0.00 0.00 0.00 44 1003.2
20260504023040 14 0 0.0 0.0 0.00 0.00 0.00 41 1003.4
20260504021537 15 0 0.0 0.0 0.00 0.00 0.00 38 1003.5
20260504020048 16 0 0.0 3.2 0.00 0.00 0.00 38 1003.5
20260504014544 16 0 0.0 3.2 0.00 0.00 0.00 36 1003.5
20260504013044 17 0 0.0 1.6 0.00 0.00 0.00 34 1003.6
20260504011541 18 0 0.0 1.6 0.00 0.00 0.00 32 1003.5
20260504010049 18 165 0.0 6.4 0.00 0.00 0.00 30 1003.6
20260504004545 19 176 1.6 8.0 0.00 0.00 0.00 29 1003.6
20260504003107 19 184 1.6 11.3 0.00 0.00 0.00 29 1003.7
20260504001539 19 0 1.6 17.7 0.00 0.00 0.00 28 1003.8
20260504000052 20 227 3.2 14.5 0.00 0.00 0.00 25 1004.0
20260503234543 20 132 4.8 17.7 0.00 0.00 0.00 26 1004.0
20260503233043 21 155 3.2 11.3 0.00 0.00 0.00 26 1004.0
20260503231541 21 169 3.2 12.9 0.00 0.00 0.00 26 1004.2
20260503230041 21 205 3.2 12.9 0.00 0.00 0.00 27 1004.3
20260503224540 21 141 3.2 14.5 0.00 0.00 0.00 27 1004.3
20260503223044 21 210 3.2 17.7 0.00 0.00 0.00 27 1004.5
20260503221551 21 186 3.2 14.5 0.00 0.00 0.00 25 1004.6
20260503220043 21 229 6.4 14.5 0.00 0.00 0.00 26 1004.7
20260503214538 21 0 3.2 16.1 0.00 0.00 0.00 27 1004.8
20260503213038 21 229 4.8 16.1 0.00 0.00 0.00 25 1005.0
20260503211546 20 148 3.2 16.1 0.00 0.00 0.00 27 1005.1
20260503210043 21 206 6.4 17.7 0.00 0.00 0.00 27 1005.2
20260503204543 21 147 4.8 16.1 0.00 0.00 0.00 27 1005.4
20260503203046 21 225 4.8 16.1 0.00 0.00 0.00 25 1005.7
20260503201541 20 173 3.2 24.1 0.00 0.00 0.00 28 1005.6
20260503200038 20 221 6.4 14.5 0.00 0.00 0.00 26 1005.9
20260503194542 20 219 1.6 14.5 0.00 0.00 0.00 28 1005.9
20260503193048 20 254 3.2 14.5 0.00 0.00 0.00 28 1006.1
20260503191542 20 212 4.8 20.9 0.00 0.00 0.00 29 1006.2
20260503190043 19 205 6.4 24.1 0.00 0.00 0.00 28 1006.7
20260503184541 19 184 6.4 22.5 0.00 0.00 0.00 28 1006.7
20260503183053 19 232 8.0 25.7 0.00 0.00 0.00 29 1006.8
20260503181554 19 195 6.4 24.1 0.00 0.00 0.00 32 1006.8
20260503180041 18 248 8.0 24.1 0.00 0.00 0.00 33 1007.0
20260503174543 18 345 8.0 24.1 0.00 0.00 0.00 33 1007.1
20260503173047 18 206 12.9 30.6 0.00 0.00 0.00 34 1007.1
20260503171540 18 267 9.7 22.5 0.00 0.00 0.00 32 1007.3
20260503081541 12 0 0.0 4.8 0.00 0.00 0.00 55 1004.7
20260503071552 12 0 0.0 4.8 0.00 0.00 0.00 56 1005.1
20260503054546 13 121 1.6 12.9 0.00 0.00 0.00 53 1006.2
20260503053043 13 57 0.0 3.2 0.00 0.00 0.00 51 1006.2